This is the latest recevied weather packets stored in our database for station/object K7PMV-13. If no packets are shown the sender has not sent any weather packets the latest 10 day(s).
| Time | Temp. | Humidity | Pressure | Rain* | Wind** | Luminosity | Snow |
|---|---|---|---|---|---|---|---|
| 1777945636 | 24.44° C | 37% | 1006.8 hPa | 0 mm | - | 11 W/m² | - |
| 1777945312 | 25° C | 37% | 1006.7 hPa | 0 mm | - | 16 W/m² | - |
| 1777944991 | 25° C | 37% | 1006.5 hPa | 0 mm | - | 21 W/m² | - |
| 1777944673 | 25° C | 37% | 1006.4 hPa | 0 mm | - | 25 W/m² | - |
| 1777943991 | 25° C | 36% | 1006.7 hPa | 0 mm | - | 33 W/m² | - |
| 1777943677 | 25° C | 36% | 1006.6 hPa | 0 mm | - | 46 W/m² | - |
| 1777943002 | 25° C | 36% | 1006.6 hPa | 0 mm | - | 79 W/m² | - |
| 1777942684 | 25° C | 36% | 1006.6 hPa | 0 mm | - | 86 W/m² | - |
| 1777942362 | 25° C | 36% | 1006.6 hPa | 0 mm | - | 109 W/m² | - |
| 1777942045 | 25° C | 36% | 1006.7 hPa | 0 mm | - | 135 W/m² | - |
| 1777941728 | 25° C | 36% | 1006.7 hPa | 0 mm | - | 155 W/m² | - |
| 1777941414 | 25° C | 36% | 1006.7 hPa | 0 mm | - | 155 W/m² | - |
| 1777941094 | 25° C | 36% | 1006.7 hPa | 0 mm | - | 146 W/m² | - |
| 1777940777 | 25° C | 36% | 1006.7 hPa | 0 mm | - | 153 W/m² | - |
| 1777940457 | 25° C | 36% | 1006.7 hPa | 0 mm | - | 146 W/m² | - |
| 1777940136 | 25° C | 36% | 1006.6 hPa | 0 mm | - | 165 W/m² | - |
| 1777939818 | 25.56° C | 36% | 1006.6 hPa | 0 mm | - | 167 W/m² | - |
| 1777939131 | 25.56° C | 36% | 1006.8 hPa | 0 mm | - | 178 W/m² | - |
| 1777938814 | 25.56° C | 36% | 1006.9 hPa | 0 mm | - | 190 W/m² | - |
| 1777938500 | 25.56° C | 36% | 1007 hPa | 0 mm | - | 181 W/m² | - |
| 1777938184 | 25.56° C | 36% | 1007 hPa | 0 mm | - | 209 W/m² | - |
| 1777937863 | 25.56° C | 35% | 1007 hPa | 0 mm | - | 223 W/m² | - |
| 1777937549 | 25.56° C | 35% | 1007 hPa | 0 mm | - | 234 W/m² | - |
| 1777937229 | 25.56° C | 36% | 1007 hPa | 0 mm | - | 253 W/m² | - |
| 1777936904 | 25.56° C | 37% | 1007 hPa | 0 mm | - | 221 W/m² | - |
* Rain latest hour (hover to see other rain measurements)
** Current wind speed in m/s (hover to see current wind gust speed)